Temp
76 76 78 79 80 80 79 78 79 79 80 82 80 82 83 82 82 81 81 80 80 80 80 79 79 79 80 80 79 79 79 78 77 75 76 78 75 75 78 78 79 80 82 80 78 76 74 72 76 77 74 82 82 83 85 87 88 88 85 84 86 87 86
77 77 79 80 79 79 78 78 79 80 80 81 82 82 83 84 82 81 82 81 80 80 82 81 80 80 78 77 76 77 76 77 77 76 75 75 76 75 76 76 79 80 81 80 80 78 75 73 75 75 72 77 78 81 82 85 87 88 87 87 88 87 87
78 79 79 78 78 78 77 77 78 78 80 79 80 82 82 83 83 83 82 82 81 81 81 82 82 80 79 78 78 77 77 75 77 76 75 75 77 77 78 77 76 77 78 78 78 77 78 76 73 75 77 76 75 78 81 82 85 89 89 88 86 87 88
76 76 76 76 77 76 76 77 77 79 79 80 79 79 81 83 82 82 82 82 82 81 80 80 80 80 78 77 77 77 76 75 76 76 76 76 77 77 77 77 77 78 76 76 76 77 76 74 74 76 77 79 77 77 81 85 84 88 90 88 88 88 88
77 77 76 76 76 76 77 77 78 78 79 79 79 79 79 81 81 81 81 81 81 80 80 81 81 81 79 76 77 75 75 76 76 76 76 76 76 77 76 77 77 78 78 78 79 78 77 77 76 75 76 78 79 81 83 81 84 85 86 89 90 90 88
77 77 77 77 77 77 77 77 78 77 78 78 78 78 78 79 80 80 80 80 80 80 80 81 80 80 78 76 76 74 73 74 76 75 75 76 77 76 77 78 78 79 79 80 79 78 78 78 77 75 78 80 75 75 79 81 79 82 88 89 91 88 89
77 77 77 77 77 78 79 78 78 79 79 78 78 78 80 80 80 80 80 80 81 81 80 80 79 80 79 80 79 77 76 75 76 75 75 76 76 76 77 77 78 78 79 80 79 79 77 77 76 75 75 77 78 77 81 83 83 81 84 89 90 89 90
77 77 78 79 78 78 79 78 79 79 79 80 80 80 81 80 80 80 80 80 79 79 79 78 78 78 78 76 76 75 75 75 74 74 74 74 74 74 75 76 77 78 78 79 79 78 80 78 77 77 76 73 75 76 76 81 80 81 81 87 90 90 91
78 78 79 79 79 79 78 79 79 79 80 80 81 81 80 80 80 80 80 80 80 80 79 79 79 78 77 75 75 74 74 75 73 72 73 73 72 73 74 76 76 77 78 78 78 78 79 79 79 78 77 75 72 72 76 76 77 79 84 81 83 83 85
77 77 77 77 78 79 79 78 79 79 79 80 80 80 80 80 80 80 79 79 79 78 78 78 78 78 77 76 75 75 75 75 74 72 73 72 73 73 74 74 75 76 77 78 78 77 77 78 79 79 79 77 76 73 72 73 75 75 81 82 80 79 82
77 78 78 78 78 78 78 78 79 78 78 79 80 80 79 79 79 79 79 79 79 79 79 79 79 78 77 76 76 76 76 76 74 73 73 73 73 73 73 73 74 74 76 76 76 76 76 76 75 77 78 80 79 75 74 72 74 79 79 82 82 83 84
78 78 78 79 78 77 77 78 78 78 79 79 80 79 79 79 79 78 79 79 79 79 79 79 78 78 77 75 75 75 76 76 75 73 73 73 73 73 71 70 73 74 75 74 74 75 75 75 75 76 77 78 78 76 75 75 71 78 82 78 81 86 86
79 79 79 78 77 78 78 79 79 78 78 79 79 79 79 79 79 78 79 78 78 78 78 78 78 78 77 75 74 73 75 75 75 75 74 74 74 74 73 71 70 69 73 74 73 71 73 74 75 76 76 76 76 76 76 74 72 73 77 78 81 85 88
78 79 78 78 78 78 78 78 79 79 80 78 79 78 79 79 80 79 79 78 79 78 77 77 77 76 76 75 75 75 75 75 74 74 74 74 75 74 72 73 73 73 71 71 70 71 72 71 71 73 75 75 75 76 75 73 72 73 77 81 79 81 84
78 79 78 77 77 78 78 77 78 78 77 78 79 78 79 78 79 79 79 79 79 79 78 78 77 76 76 75 74 74 74 75 74 74 73 73 75 75 73 73 75 76 76 72 69 71 72 69 70 72 74 74 73 73 75 74 73 72 72 78 79 81 82
78 77 77 77 77 77 77 77 78 77 78 78 79 78 78 78 78 79 79 78 79 78 78 78 77 76 75 75 76 74 74 75 74 74 73 74 75 75 74 74 74 74 74 70 69 70 71 70 72 70 69 71 70 72 73 74 73 72 73 75 79 80 80
76 77 76 77 77 77 78 78 78 77 78 78 77 78 79 79 79 78 78 78 78 78 77 77 76 76 76 76 76 76 77 76 76 75 74 77 78 76 75 73 73 73 71 70 74 74 74 72 72 72 73 72 70 68 70 69 71 71 73 73 76 79 79
76 76 76 77 77 77 77 77 78 79 78 77 78 77 77 79 78 78 76 78 78 78 77 77 77 76 75 75 76 74 74 74 73 74 73 73 73 74 74 74 75 75 74 71 73 72 71 69 69 72 72 72 69 70 70 69 67 69 71 71 72 76 78
75 76 76 76 76 77 77 77 77 77 78 78 78 77 77 77 77 78 78 79 79 78 78 77 77 76 76 75 74 73 73 73 73 73 73 73 74 74 73 74 74 75 75 73 73 73 73 72 73 71 71 72 73 74 70 70 71 71 68 69 70 72 76
75 75 75 76 76 76 76 76 76 76 78 78 77 76 77 77 77 78 79 78 77 77 77 76 76 75 75 75 74 73 72 72 71 72 72 73 73 72 72 73 72 72 72 73 73 73 73 72 71 71 71 71 72 71 71 69 68 67 67 69 70 71 73
76 76 76 76 76 75 75 75 76 76 77 76 76 77 77 77 77 78 78 78 77 77 76 75 75 75 75 74 73 72 72 71 71 71 70 71 71 71 71 72 72 72 72 72 72 73 72 70 70 70 71 71 69 69 69 72 68 68 69 67 67 68 70
76 76 76 76 76 74 75 75 75 76 75 75 75 77 77 77 77 77 77 76 76 75 74 73 74 74 74 73 73 72 72 71 71 70 71 71 71 71 71 71 71 71 71 68 62 60 61 60 64 65 67 69 70 70 70 69 69 70 68 69 69 70 68
76 75 75 74 75 75 75 74 72 72 73 74 75 75 76 77 77 76 75 76 75 73 73 73 70 63 63 73 73 72 71 71 71 71 70 69 70 70 70 71 71 68 66 63 61 58 54 55 57 62 66 67 69 69 68 66 65 67 67 67 67 69 67
75 75 75 75 75 75 75 75 73 72 71 71 72 73 75 76 75 75 75 75 73 72 72 73 55 48 47 53 68 72 71 71 71 70 70 69 69 69 70 71 72 70 69 65 64 55 53 52 51 51 52 55 59 65 67 67 68 67 66 66 69 68 65
76 76 75 75 76 76 75 73 72 71 69 66 67 71 72 74 74 74 73 74 73 72 73 61 46 45 44 46 56 70 71 71 70 70 70 69 69 69 69 69 70 71 70 71 70 69 61 53 49 49 48 49 49 49 52 62 66 67 67 68 67 68 68
77 76 76 75 75 75 74 72 72 71 70 69 68 68 70 71 73 74 73 73 72 73 74 51 46 45 44 44 45 58 71 71 70 70 69 69 69 68 68 68 68 69 71 68 68 69 70 70 56 49 51 50 50 49 45 44 49 63 68 67 67 69 71
77 77 76 75 75 75 73 72 71 71 71 69 67 67 67 68 70 72 72 72 72 73 74 54 46 44 45 43 43 49 70 69 69 69 69 69 68 68 68 68 67 68 69 70 70 70 70 70 71 69 67 67 69 64 52 46 45 46 55 64 66 66 69
76 76 76 75 74 74 73 72 71 71 70 69 69 68 68 68 67 69 72 72 72 71 72 48 45 43 43 42 41 47 67 68 69 69 69 69 69 68 68 68 67 67 68 69 70 68 69 70 69 69 69 69 69 69 70 69 65 63 61 63 66 67 69
76 76 75 75 74 74 73 72 71 69 70 70 70 70 70 69 66 67 71 72 72 70 69 43 44 43 43 42 41 59 66 67 67 68 69 69 69 69 70 69 68 67 68 67 65 52 58 66 66 65 64 67 68 69 70 67 59 59 67 68 68 68 70
76 75 75 75 74 74 73 72 72 72 71 70 69 67 70 68 69 71 71 72 71 70 70 49 43 42 43 41 46 65 67 68 68 68 68 69 70 70 70 70 69 68 68 69 59 45 44 55 63 63 64 65 67 68 68 70 58 50 50 49 48 48 48
76 75 75 75 74 74 74 74 73 72 71 70 69 69 69 70 68 69 68 70 72 71 73 55 41 43 42 40 53 65 68 68 68 67 68 69 69 69 69 65 65 67 66 67 43 42 40 53 62 63 63 64 65 66 67 69 71 68 51 48 49 49 48
77 76 75 75 74 74 74 73 74 73 72 72 71 72 71 70 69 69 70 70 69 71 73 58 41 43 42 41 51 65 68 69 68 68 67 66 67 69 68 67 61 61 63 61 45 44 41 51 60 62 62 62 62 64 66 68 68 67 68 68 67 65 61
76 76 76 75 75 74 75 74 73 72 72 73 72 71 70 70 68 68 68 68 69 71 71 67 49 40 42 41 44 63 69 68 68 68 68 66 66 67 68 69 64 48 46 46 44 42 42 41 53 57 57 59 60 61 66 65 63 62 63 63 65 67 66
75 75 76 75 75 74 74 73 73 72 71 72 72 70 66 68 68 67 70 70 71 71 71 70 56 39 41 41 41 48 66 67 68 68 67 66 66 66 67 69 71 55 44 44 42 40 40 39 42 49 54 57 61 56 53 61 61 59 60 60 61 62 65
75 74 75 75 74 73 74 74 72 72 72 71 70 69 69 68 68 69 67 65 71 71 69 63 66 43 40 39 41 39 59 66 67 67 66 67 66 65 66 68 70 53 39 41 39 39 39 39 39 48 52 47 44 41 57 60 62 62 62 61 61 61 62
73 75 74 74 73 71 72 72 71 71 70 69 69 68 68 69 68 68 65 71 72 71 71 66 56 58 42 41 40 40 42 55 52 63 64 65 64 65 67 67 67 46 40 40 40 39 40 38 41 50 45 42 41 39 45 60 61 62 61 61 60 59 60
73 73 73 72 72 71 71 71 71 71 71 70 69 68 68 68 68 69 69 70 71 72 71 71 57 52 52 40 42 40 41 41 45 60 64 65 66 65 66 68 58 38 41 39 39 40 39 41 51 44 39 38 37 41 56 60 61 61 59 59 58 58 59
MSLP
1017.93 1018.05 1018.01 1018.05 1017.97 1018.05 1018.37 1018.53 1018.53 1018.61 1018.61 1018.61 1018.81 1018.81 1018.77 1018.93 1019.09 1019.25 1019.33 1019.49 1019.61 1019.65 1019.69 1019.89 1020.01 1019.97 1019.97 1019.93 1020.09 1020.17 1020.29 1020.41 1020.61 1020.89 1020.81 1020.41 1020.81 1020.61 1020.17 1020.33 1020.21 1020.01 1019.85 1020.09 1020.49 1020.85 1021.13 1021.29 1020.53 1019.89 1020.25 1019.41 1019.29 1019.17 1018.97 1018.69 1018.41 1018.33 1018.61 1018.69 1018.57 1018.45 1018.45
1017.61 1017.73 1017.69 1017.73 1018.05 1018.09 1018.45 1018.45 1018.53 1018.49 1018.53 1018.49 1018.45 1018.57 1018.61 1018.57 1018.77 1018.97 1019.05 1019.17 1019.41 1019.45 1019.45 1019.49 1019.61 1019.69 1020.01 1020.21 1020.29 1020.41 1020.53 1020.45 1020.41 1020.53 1020.77 1020.65 1020.49 1020.61 1020.53 1020.53 1020.29 1020.17 1019.89 1020.05 1020.13 1020.33 1020.93 1021.13 1020.69 1020.61 1020.97 1020.05 1019.73 1019.21 1019.17 1018.77 1018.49 1018.21 1018.21 1018.29 1018.13 1018.13 1018.01
1017.33 1017.33 1017.45 1017.81 1018.05 1018.13 1018.41 1018.49 1018.49 1018.53 1018.45 1018.49 1018.41 1018.33 1018.41 1018.41 1018.57 1018.61 1018.77 1018.93 1019.05 1019.13 1019.13 1019.13 1019.17 1019.45 1019.77 1019.97 1020.09 1020.21 1020.25 1020.53 1020.37 1020.45 1020.61 1020.49 1020.37 1020.29 1020.25 1020.33 1020.53 1020.41 1020.33 1020.25 1020.33 1020.41 1020.37 1020.49 1021.21 1020.69 1020.17 1020.29 1020.49 1019.73 1019.13 1019.05 1018.61 1018.09 1017.85 1017.85 1018.09 1018.05 1017.85
1017.33 1017.41 1017.69 1017.89 1017.97 1018.17 1018.29 1018.29 1018.33 1018.29 1018.25 1018.33 1018.33 1018.33 1018.29 1018.21 1018.29 1018.41 1018.57 1018.65 1018.69 1018.81 1019.05 1019.13 1019.25 1019.33 1019.41 1019.65 1019.69 1019.85 1020.09 1020.29 1020.25 1020.33 1020.45 1020.37 1020.29 1020.25 1020.33 1020.29 1020.37 1020.29 1020.41 1020.53 1020.37 1020.17 1020.53 1020.77 1020.73 1020.49 1020.01 1019.77 1019.97 1020.09 1019.17 1018.53 1018.57 1018.09 1017.73 1017.65 1017.85 1017.81 1017.73
1017.05 1017.21 1017.45 1017.65 1017.73 1017.89 1017.97 1018.01 1017.93 1018.05 1018.17 1018.17 1018.25 1018.25 1018.29 1018.17 1018.25 1018.33 1018.37 1018.45 1018.53 1018.65 1018.81 1018.81 1018.85 1018.93 1019.25 1019.61 1019.65 1019.85 1019.97 1019.97 1020.01 1020.17 1020.21 1020.33 1020.37 1020.25 1020.21 1020.09 1020.05 1019.89 1019.89 1020.05 1019.85 1019.89 1020.17 1020.29 1020.37 1020.45 1020.25 1019.77 1019.61 1019.33 1018.65 1018.77 1018.45 1018.37 1018.05 1017.65 1017.29 1017.25 1017.45
1016.89 1016.97 1017.09 1017.29 1017.33 1017.57 1017.61 1017.73 1017.77 1017.97 1017.97 1018.17 1018.13 1018.21 1018.29 1018.25 1018.21 1018.37 1018.41 1018.49 1018.49 1018.53 1018.57 1018.61 1018.69 1018.77 1018.97 1019.37 1019.49 1019.85 1020.05 1020.01 1019.85 1020.01 1020.13 1020.05 1019.97 1020.09 1019.97 1019.69 1019.69 1019.65 1019.73 1019.45 1019.57 1019.81 1019.77 1019.85 1020.09 1020.37 1019.77 1019.41 1020.17 1019.89 1019.25 1018.81 1018.97 1018.45 1017.85 1017.37 1017.05 1017.17 1017.37
1016.81 1016.89 1016.97 1017.05 1017.09 1017.09 1017.17 1017.37 1017.49 1017.53 1017.65 1017.81 1017.89 1018.01 1017.89 1018.05 1018.09 1018.09 1018.21 1018.25 1018.21 1018.21 1018.37 1018.49 1018.57 1018.65 1018.77 1018.85 1019.09 1019.33 1019.45 1019.57 1019.57 1019.73 1019.85 1019.81 1019.73 1019.73 1019.61 1019.69 1019.57 1019.57 1019.53 1019.33 1019.41 1019.57 1019.81 1019.97 1020.09 1020.09 1020.01 1019.61 1019.49 1019.65 1018.85 1018.53 1018.37 1018.57 1017.89 1017.13 1016.85 1016.97 1017.09
1016.45 1016.61 1016.69 1016.69 1016.81 1016.97 1017.01 1017.17 1017.25 1017.21 1017.37 1017.41 1017.45 1017.49 1017.49 1017.69 1017.81 1017.89 1017.97 1018.09 1018.17 1018.25 1018.33 1018.45 1018.57 1018.69 1018.77 1018.97 1019.13 1019.29 1019.33 1019.41 1019.53 1019.69 1019.69 1019.73 1019.77 1019.77 1019.77 1019.65 1019.53 1019.41 1019.37 1019.29 1019.33 1019.41 1019.21 1019.45 1019.61 1019.65 1019.85 1020.25 1019.77 1019.41 1019.37 1018.65 1018.69 1018.45 1018.41 1017.41 1016.85 1016.85 1016.65
1016.13 1016.21 1016.33 1016.45 1016.57 1016.69 1016.89 1017.01 1017.09 1017.13 1017.13 1017.17 1017.13 1017.21 1017.37 1017.49 1017.65 1017.77 1017.81 1017.89 1017.93 1018.01 1018.13 1018.21 1018.33 1018.45 1018.69 1018.93 1019.09 1019.17 1019.29 1019.05 1019.37 1019.57 1019.61 1019.61 1019.69 1019.61 1019.61 1019.45 1019.45 1019.33 1019.09 1019.09 1019.13 1019.13 1019.09 1018.97 1019.05 1019.13 1019.37 1019.69 1020.21 1020.17 1019.17 1019.17 1018.89 1018.61 1017.69 1018.21 1017.69 1017.45 1017.21
1016.09 1016.17 1016.25 1016.37 1016.49 1016.57 1016.73 1016.93 1017.01 1017.09 1017.09 1017.13 1017.17 1017.21 1017.33 1017.37 1017.41 1017.53 1017.61 1017.69 1017.81 1017.93 1018.05 1018.09 1018.17 1018.25 1018.45 1018.69 1018.81 1018.93 1019.01 1018.93 1019.09 1019.37 1019.37 1019.49 1019.41 1019.37 1019.33 1019.29 1019.29 1019.21 1019.01 1018.85 1018.85 1018.93 1018.93 1018.93 1018.77 1018.69 1018.69 1019.09 1019.17 1019.69 1019.93 1019.45 1018.77 1018.89 1017.97 1017.61 1018.13 1017.77 1017.29
1015.97 1015.97 1015.97 1016.13 1016.25 1016.45 1016.61 1016.73 1016.81 1016.97 1017.09 1017.05 1017.01 1017.09 1017.17 1017.29 1017.33 1017.41 1017.49 1017.57 1017.57 1017.65 1017.77 1017.89 1017.97 1018.13 1018.29 1018.45 1018.49 1018.53 1018.61 1018.69 1018.85 1019.01 1019.13 1019.13 1019.17 1019.13 1019.13 1019.09 1019.01 1019.05 1018.85 1018.85 1018.77 1018.73 1018.81 1018.85 1018.89 1018.77 1018.57 1018.33 1018.41 1019.13 1019.13 1019.49 1018.85 1017.89 1018.05 1017.41 1017.45 1017.49 1017.09
1015.61 1015.69 1015.77 1015.85 1016.05 1016.25 1016.41 1016.45 1016.57 1016.65 1016.73 1016.77 1016.81 1016.93 1017.05 1017.05 1017.13 1017.21 1017.25 1017.37 1017.45 1017.53 1017.57 1017.69 1017.85 1018.01 1018.17 1018.45 1018.49 1018.57 1018.49 1018.53 1018.69 1018.85 1018.81 1018.89 1018.89 1019.05 1019.25 1019.25 1018.93 1018.81 1018.69 1018.81 1018.73 1018.65 1018.65 1018.77 1018.81 1018.69 1018.49 1018.29 1018.25 1018.41 1018.69 1018.73 1019.21 1017.61 1017.09 1017.97 1017.41 1016.85 1016.73
1015.29 1015.45 1015.53 1015.73 1015.93 1016.05 1016.09 1016.17 1016.33 1016.49 1016.57 1016.53 1016.69 1016.77 1016.89 1016.93 1016.97 1017.05 1017.01 1017.09 1017.25 1017.37 1017.49 1017.61 1017.73 1017.89 1018.01 1018.25 1018.41 1018.53 1018.45 1018.49 1018.61 1018.65 1018.69 1018.61 1018.69 1018.73 1018.89 1019.09 1019.13 1019.13 1018.77 1018.69 1018.81 1018.97 1018.69 1018.57 1018.41 1018.49 1018.41 1018.33 1018.29 1018.17 1018.21 1018.53 1018.65 1018.37 1017.37 1017.57 1017.29 1016.81 1016.37
1015.13 1015.13 1015.33 1015.45 1015.69 1015.77 1015.85 1016.01 1016.17 1016.25 1016.37 1016.61 1016.65 1016.81 1016.85 1016.89 1016.93 1017.01 1017.05 1017.09 1017.13 1017.29 1017.45 1017.57 1017.65 1017.81 1017.93 1018.09 1018.17 1018.21 1018.29 1018.37 1018.49 1018.53 1018.57 1018.57 1018.41 1018.57 1018.73 1018.77 1018.89 1018.73 1018.85 1018.85 1018.93 1018.89 1018.61 1018.61 1018.61 1018.41 1018.25 1018.25 1018.25 1018.05 1018.17 1018.37 1018.57 1018.17 1017.45 1016.81 1017.17 1017.05 1016.53
1014.77 1014.89 1015.13 1015.29 1015.49 1015.53 1015.69 1015.85 1015.97 1016.13 1016.41 1016.41 1016.49 1016.61 1016.65 1016.73 1016.77 1016.93 1017.09 1017.13 1017.17 1017.21 1017.33 1017.45 1017.61 1017.77 1017.97 1018.05 1018.13 1018.13 1018.21 1018.25 1018.45 1018.49 1018.49 1018.53 1018.41 1018.25 1018.41 1018.49 1018.33 1018.17 1018.21 1018.69 1018.81 1018.65 1018.41 1018.49 1018.65 1018.45 1018.05 1018.09 1018.09 1018.09 1017.89 1018.21 1018.17 1018.17 1017.97 1017.09 1017.01 1016.65 1016.69
1014.53 1014.69 1014.89 1015.01 1015.13 1015.21 1015.29 1015.45 1015.53 1015.85 1016.01 1016.13 1016.21 1016.29 1016.33 1016.45 1016.53 1016.65 1016.89 1017.01 1017.09 1017.21 1017.33 1017.41 1017.53 1017.73 1017.85 1017.97 1018.01 1018.13 1018.13 1018.13 1018.25 1018.29 1018.37 1018.29 1018.25 1018.21 1018.25 1018.21 1018.17 1018.05 1018.09 1018.57 1018.69 1018.49 1018.25 1018.29 1018.13 1018.25 1018.41 1018.05 1018.13 1017.89 1017.73 1017.73 1017.97 1017.97 1017.81 1017.45 1016.77 1016.77 1016.69
1014.33 1014.41 1014.57 1014.61 1014.73 1014.81 1014.93 1015.13 1015.25 1015.53 1015.73 1015.85 1016.13 1016.13 1016.13 1016.33 1016.41 1016.53 1016.65 1016.77 1016.85 1017.09 1017.21 1017.37 1017.49 1017.61 1017.73 1017.81 1017.85 1017.77 1017.85 1017.93 1018.17 1018.25 1018.21 1018.05 1017.89 1017.97 1018.09 1018.17 1018.01 1017.93 1018.05 1018.25 1017.89 1017.81 1017.73 1017.85 1017.85 1017.81 1017.73 1017.85 1018.05 1018.21 1018.01 1017.93 1017.85 1017.89 1017.73 1017.73 1016.89 1016.69 1016.45
1013.97 1014.09 1014.21 1014.21 1014.41 1014.57 1014.77 1015.01 1015.25 1015.49 1015.69 1015.93 1016.01 1016.17 1016.25 1016.25 1016.37 1016.45 1016.61 1016.61 1016.69 1016.81 1017.01 1017.17 1017.37 1017.57 1017.77 1018.01 1018.05 1018.25 1018.41 1018.37 1018.45 1018.37 1018.37 1018.37 1018.37 1018.29 1018.17 1018.09 1017.89 1017.73 1017.69 1017.81 1017.69 1017.73 1017.85 1017.97 1018.05 1017.49 1017.45 1017.57 1017.97 1017.97 1017.81 1017.85 1018.17 1018.13 1017.89 1017.73 1017.33 1016.81 1016.37
1013.65 1013.69 1013.85 1014.01 1014.21 1014.45 1014.65 1014.93 1015.17 1015.33 1015.45 1015.77 1015.97 1016.21 1016.37 1016.41 1016.41 1016.41 1016.45 1016.41 1016.45 1016.61 1016.73 1016.93 1017.13 1017.41 1017.69 1018.01 1018.21 1018.29 1018.37 1018.41 1018.37 1018.37 1018.33 1018.29 1018.25 1018.17 1018.21 1018.09 1017.89 1017.69 1017.57 1017.65 1017.53 1017.33 1017.25 1017.25 1017.17 1017.25 1017.37 1017.33 1017.25 1017.29 1017.65 1017.69 1017.61 1017.57 1017.77 1017.61 1017.33 1017.13 1016.53
1013.25 1013.37 1013.65 1013.89 1014.09 1014.37 1014.65 1014.89 1015.09 1015.25 1015.21 1015.41 1015.73 1016.05 1016.21 1016.37 1016.45 1016.33 1016.29 1016.37 1016.49 1016.61 1016.69 1016.89 1017.17 1017.45 1017.69 1017.89 1018.05 1018.17 1018.33 1018.41 1018.49 1018.45 1018.41 1018.25 1018.17 1018.17 1018.13 1018.05 1017.97 1017.85 1017.81 1017.61 1017.37 1017.29 1017.21 1017.17 1017.09 1017.05 1016.97 1016.97 1017.13 1017.29 1017.33 1017.53 1017.61 1017.57 1017.65 1017.49 1017.17 1016.93 1016.69
1012.97 1013.09 1013.37 1013.69 1013.97 1014.21 1014.49 1014.77 1014.93 1015.05 1015.21 1015.41 1015.57 1015.77 1015.97 1016.17 1016.29 1016.25 1016.25 1016.37 1016.37 1016.45 1016.73 1017.05 1017.17 1017.45 1017.65 1017.81 1017.97 1018.13 1018.21 1018.37 1018.37 1018.33 1018.33 1018.29 1018.21 1018.13 1018.05 1017.97 1017.85 1017.73 1017.65 1017.57 1017.45 1017.29 1017.21 1017.45 1017.25 1017.09 1016.77 1016.77 1016.93 1017.01 1017.21 1017.01 1017.37 1017.29 1017.21 1017.37 1017.25 1017.13 1016.89
1012.65 1012.81 1013.13 1013.45 1013.73 1014.09 1014.29 1014.49 1014.77 1014.89 1015.17 1015.41 1015.53 1015.53 1015.65 1015.85 1016.13 1016.29 1016.25 1016.37 1016.41 1016.57 1016.77 1016.97 1017.05 1017.29 1017.57 1017.65 1017.81 1017.97 1018.05 1018.13 1018.17 1018.17 1018.13 1018.09 1018.01 1017.93 1017.89 1017.77 1017.69 1017.65 1017.57 1017.69 1017.85 1018.05 1018.13 1018.33 1018.17 1017.85 1017.37 1017.05 1016.89 1016.81 1016.77 1016.81 1016.81 1016.81 1016.93 1016.89 1016.77 1016.57 1016.81
1012.45 1012.65 1013.01 1013.21 1013.49 1013.77 1014.05 1014.33 1014.89 1015.21 1015.21 1015.33 1015.45 1015.53 1015.57 1015.65 1015.85 1016.09 1016.21 1016.29 1016.37 1016.53 1016.69 1016.73 1017.05 1017.45 1017.53 1017.41 1017.57 1017.73 1017.85 1017.93 1017.97 1017.97 1018.01 1018.01 1017.89 1017.81 1017.69 1017.61 1017.49 1017.49 1017.69 1017.89 1018.01 1018.05 1018.09 1018.13 1018.25 1018.09 1017.73 1017.57 1017.21 1017.05 1017.01 1017.09 1017.13 1016.89 1016.77 1016.85 1016.65 1016.37 1016.49
1012.45 1012.57 1012.73 1013.01 1013.17 1013.49 1013.77 1014.01 1014.49 1014.81 1015.05 1015.29 1015.41 1015.57 1015.57 1015.65 1015.77 1015.85 1015.89 1016.05 1016.25 1016.45 1016.53 1016.61 1017.17 1017.49 1017.69 1017.77 1017.65 1017.57 1017.65 1017.69 1017.73 1017.77 1017.81 1017.81 1017.77 1017.69 1017.53 1017.37 1017.17 1017.09 1017.17 1017.37 1017.49 1017.61 1017.65 1017.73 1017.85 1017.93 1018.01 1018.01 1017.89 1017.57 1017.17 1016.97 1016.85 1016.89 1016.81 1016.77 1016.21 1016.33 1016.41
1012.09 1012.29 1012.53 1012.81 1012.89 1013.05 1013.49 1013.93 1014.25 1014.65 1015.05 1015.49 1015.77 1015.69 1015.61 1015.53 1015.53 1015.65 1015.73 1015.81 1016.05 1016.21 1016.29 1016.61 1017.09 1017.45 1017.69 1017.81 1017.77 1017.57 1017.45 1017.53 1017.57 1017.61 1017.57 1017.57 1017.53 1017.49 1017.45 1017.37 1017.17 1017.01 1016.97 1016.89 1016.77 1016.69 1016.97 1017.25 1017.33 1017.45 1017.53 1017.57 1017.69 1017.73 1017.61 1017.33 1017.05 1016.81 1016.61 1016.45 1016.21 1015.89 1015.89
1011.69 1012.01 1012.21 1012.37 1012.57 1012.85 1013.21 1013.69 1013.97 1014.29 1014.73 1014.97 1015.29 1015.61 1015.45 1015.33 1015.29 1015.29 1015.53 1015.73 1015.85 1015.93 1015.97 1016.53 1016.93 1017.29 1017.53 1017.69 1017.81 1017.77 1017.37 1017.33 1017.41 1017.37 1017.37 1017.41 1017.41 1017.41 1017.33 1017.29 1017.17 1016.97 1016.73 1016.81 1016.89 1016.77 1016.49 1016.25 1016.57 1016.89 1016.97 1017.05 1017.09 1017.17 1017.21 1017.29 1017.17 1016.89 1016.49 1016.33 1016.09 1015.65 1015.33
1011.17 1011.41 1011.77 1012.05 1012.25 1012.53 1012.89 1013.33 1013.61 1013.81 1014.13 1014.61 1015.13 1015.37 1015.41 1015.33 1015.29 1015.21 1015.33 1015.53 1015.61 1015.65 1015.65 1016.29 1016.77 1017.09 1017.33 1017.57 1017.77 1017.89 1017.41 1017.29 1017.25 1017.21 1017.21 1017.17 1017.17 1017.17 1017.13 1017.13 1017.01 1016.85 1016.61 1016.37 1016.29 1016.17 1016.05 1016.01 1015.89 1016.05 1016.21 1016.21 1016.05 1016.09 1016.45 1016.65 1016.73 1016.81 1016.69 1016.25 1015.93 1015.69 1015.21
1010.97 1011.13 1011.41 1011.69 1011.97 1012.21 1012.57 1012.97 1013.33 1013.53 1013.77 1014.05 1014.45 1014.81 1014.97 1015.13 1015.57 1015.49 1015.13 1015.25 1015.33 1015.49 1015.45 1016.05 1016.53 1016.89 1017.17 1017.45 1017.73 1017.97 1017.41 1017.25 1017.13 1017.05 1016.97 1016.93 1016.93 1016.89 1016.85 1016.85 1016.85 1016.73 1016.65 1016.41 1015.97 1016.05 1016.09 1015.89 1015.93 1015.93 1015.85 1015.73 1015.65 1015.53 1015.41 1015.45 1015.73 1015.97 1016.09 1015.97 1015.61 1015.25 1015.01
1010.65 1010.85 1011.09 1011.33 1011.61 1011.89 1012.13 1012.49 1012.81 1013.37 1013.49 1013.73 1013.93 1014.17 1014.37 1014.77 1015.37 1015.53 1014.89 1015.01 1015.17 1015.25 1015.37 1015.93 1016.29 1016.65 1017.01 1017.29 1017.81 1017.81 1017.25 1017.09 1016.97 1016.85 1016.69 1016.65 1016.65 1016.53 1016.41 1016.41 1016.45 1016.41 1016.37 1016.29 1016.09 1016.33 1016.41 1016.41 1016.37 1016.29 1016.05 1015.69 1015.41 1015.17 1015.05 1014.93 1014.93 1014.89 1014.89 1014.85 1014.85 1014.69 1014.37
1010.25 1010.49 1010.65 1010.97 1011.25 1011.41 1011.69 1012.01 1012.25 1012.69 1013.13 1013.33 1013.73 1014.17 1014.17 1014.57 1014.69 1014.69 1014.77 1014.81 1015.01 1015.13 1015.17 1015.73 1016.13 1016.53 1016.89 1017.37 1017.81 1017.17 1016.89 1016.77 1016.61 1016.53 1016.45 1016.33 1016.25 1016.17 1016.17 1016.17 1016.17 1016.17 1016.09 1015.97 1016.05 1016.41 1016.73 1016.73 1016.49 1016.29 1015.97 1015.57 1015.17 1014.93 1014.73 1014.45 1014.45 1014.61 1014.69 1014.77 1014.77 1014.73 1014.69
1009.81 1010.09 1010.29 1010.53 1010.73 1010.93 1011.13 1011.41 1011.85 1012.21 1012.61 1012.93 1013.37 1013.65 1014.01 1014.05 1014.29 1014.53 1014.77 1014.69 1014.53 1014.89 1014.77 1015.41 1015.97 1016.37 1016.81 1017.21 1017.17 1016.69 1016.53 1016.41 1016.33 1016.29 1016.05 1015.97 1015.93 1015.85 1015.77 1016.01 1016.25 1016.21 1016.13 1015.89 1016.53 1016.97 1017.33 1017.05 1016.45 1016.09 1015.89 1015.45 1015.05 1014.77 1014.45 1014.17 1014.01 1013.89 1014.01 1014.17 1014.21 1014.17 1014.05
1009.33 1009.69 1009.93 1010.13 1010.29 1010.57 1010.81 1011.09 1011.41 1011.81 1012.17 1012.41 1012.73 1013.01 1013.29 1013.61 1013.93 1014.09 1014.17 1014.37 1014.33 1014.45 1014.37 1015.25 1015.85 1016.17 1016.61 1016.97 1017.25 1016.53 1016.25 1015.97 1015.85 1015.69 1015.69 1015.73 1015.65 1015.45 1015.49 1015.57 1015.89 1016.05 1016.01 1015.89 1016.29 1016.77 1017.25 1017.21 1016.45 1016.17 1015.89 1015.57 1015.13 1014.69 1014.33 1014.09 1013.97 1013.93 1013.73 1013.61 1013.53 1013.57 1013.57
1009.09 1009.29 1009.53 1009.73 1010.01 1010.21 1010.41 1010.77 1011.17 1011.53 1011.85 1012.01 1012.33 1012.65 1012.93 1013.29 1013.77 1013.81 1013.77 1014.09 1014.17 1014.17 1014.13 1014.77 1015.69 1016.01 1016.33 1016.65 1016.85 1016.37 1015.85 1015.77 1015.61 1015.45 1015.41 1015.41 1015.49 1015.29 1015.05 1015.05 1015.21 1015.61 1015.77 1016.05 1016.25 1016.45 1016.61 1016.97 1016.97 1016.61 1016.33 1015.77 1015.21 1014.65 1014.25 1014.25 1014.37 1014.45 1014.21 1014.05 1013.69 1013.33 1013.09
1008.97 1009.09 1009.17 1009.45 1009.73 1010.05 1010.21 1010.53 1010.81 1011.33 1011.65 1011.77 1011.97 1012.33 1012.81 1012.93 1013.25 1013.53 1013.29 1013.45 1013.57 1013.69 1013.81 1014.05 1015.01 1015.57 1015.97 1016.21 1016.49 1016.57 1015.85 1015.53 1015.33 1015.29 1015.17 1015.17 1015.13 1015.09 1014.97 1014.69 1014.49 1014.73 1015.33 1015.73 1016.21 1016.49 1016.73 1016.97 1017.17 1017.01 1016.49 1015.89 1015.09 1015.01 1015.21 1014.73 1014.37 1014.49 1014.45 1014.25 1013.93 1013.53 1013.05
1008.73 1008.93 1009.01 1009.21 1009.61 1009.93 1010.01 1010.25 1010.65 1010.97 1011.25 1011.49 1011.77 1012.01 1012.25 1012.57 1012.77 1012.93 1013.33 1013.69 1013.09 1013.17 1013.45 1013.85 1014.29 1015.21 1015.53 1015.85 1016.17 1016.45 1015.93 1015.33 1015.17 1015.13 1015.05 1014.89 1014.93 1014.93 1014.89 1014.69 1014.41 1014.93 1015.53 1015.97 1016.29 1016.57 1016.77 1016.93 1017.05 1016.93 1016.17 1015.81 1015.53 1015.45 1015.21 1014.89 1014.45 1014.01 1013.77 1013.65 1013.41 1013.17 1012.93
1008.77 1008.73 1008.89 1009.05 1009.37 1009.77 1009.97 1010.25 1010.57 1010.77 1011.01 1011.33 1011.57 1011.85 1012.01 1012.09 1012.41 1012.73 1013.25 1012.69 1012.65 1012.85 1013.09 1013.61 1013.93 1014.45 1015.09 1015.49 1015.81 1016.13 1016.01 1015.53 1015.37 1015.37 1015.17 1014.97 1014.85 1014.81 1014.69 1014.65 1014.61 1015.45 1015.69 1016.09 1016.37 1016.41 1016.53 1016.57 1016.61 1016.09 1015.89 1015.81 1015.65 1015.49 1015.49 1014.77 1014.17 1013.73 1013.49 1013.33 1013.21 1013.09 1012.81
1008.49 1008.53 1008.73 1008.97 1009.21 1009.57 1009.85 1010.05 1010.29 1010.41 1010.69 1010.93 1011.21 1011.57 1011.73 1011.85 1012.05 1012.05 1012.17 1012.17 1012.25 1012.41 1012.77 1012.93 1013.65 1014.05 1014.57 1015.13 1015.45 1015.65 1015.73 1015.73 1015.73 1015.41 1015.13 1014.89 1014.65 1014.69 1014.53 1014.41 1015.01 1015.65 1015.77 1015.93 1016.13 1016.25 1016.29 1016.25 1015.81 1015.61 1015.81 1015.77 1015.53 1015.45 1015.05 1014.09 1013.69 1013.45 1013.37 1013.25 1013.21 1012.97 1012.69
Wind_Speed
6 5 6 5 4 4 5 5 4 5 5 5 5 6 6 6 6 6 5 5 5 5 4 4 4 3 3 2 3 3 4 4 5 6 6 5 5 4 3 5 5 5 6 5 6 6 6 7 2 2 9 4 4 2 4 4 5 3 3 4 6 6 6
7 6 6 6 6 5 5 5 5 5 5 6 6 7 7 7 7 6 6 6 6 6 6 5 5 5 5 3 3 4 4 4 4 4 5 6 5 6 5 6 6 6 5 5 5 5 6 6 6 3 6 4 5 4 4 5 5 5 4 4 4 5 5
8 7 7 7 6 6 7 6 6 6 6 6 7 7 8 8 8 7 7 7 6 6 5 6 5 5 5 5 5 5 4 4 4 4 5 5 5 5 6 5 5 5 6 5 5 6 7 7 7 6 5 5 5 2 3 4 6 6 5 4 4 5 5
10 9 8 8 7 7 7 8 7 7 6 6 6 6 7 8 8 8 7 7 6 6 6 6 6 6 6 6 6 6 6 6 5 5 5 5 6 6 6 6 6 6 6 6 5 5 5 6 6 7 6 5 5 5 5 4 4 6 6 4 5 5 4
10 8 9 9 9 9 8 7 7 7 7 7 7 6 7 8 7 7 7 7 7 6 7 6 6 6 3 3 3 4 4 6 6 6 6 6 7 6 7 6 6 6 6 6 6 6 6 6 6 7 6 6 6 6 3 2 6 7 7 6 5 4 3
9 9 8 8 8 8 8 8 7 7 7 7 7 7 7 8 7 6 7 7 6 6 6 6 6 7 5 7 6 6 8 9 7 8 7 8 7 7 6 6 6 6 6 6 6 6 6 6 7 8 7 6 7 6 6 7 5 6 8 6 6 1 4
9 9 8 8 9 8 7 8 7 7 7 7 7 7 6 8 7 7 7 7 6 6 7 7 6 6 6 6 6 7 7 6 7 8 8 8 7 7 6 6 6 6 6 6 6 6 7 7 7 8 7 7 7 7 6 6 6 7 5 6 4 3 4
9 9 8 7 7 7 6 7 6 6 6 6 6 6 6 7 7 7 7 7 7 7 7 7 6 6 6 6 5 6 7 6 6 6 7 8 7 8 8 7 7 7 6 6 6 7 7 7 7 7 7 8 7 8 7 6 7 9 6 6 5 5 3
9 9 8 7 7 7 7 6 6 6 6 6 5 5 6 6 7 7 7 8 7 7 7 7 7 6 6 6 6 6 7 6 6 7 7 7 8 9 9 8 8 8 7 7 7 7 7 7 7 7 7 7 8 8 7 7 6 7 7 6 5 5 4
10 10 9 9 9 8 7 7 6 6 6 6 5 5 6 6 6 7 7 7 7 7 6 6 7 7 6 6 7 7 7 6 6 6 6 7 7 7 8 10 8 8 8 7 8 7 7 7 8 7 8 8 7 8 9 9 7 6 6 7 6 2 5
11 11 10 10 9 9 8 8 7 7 7 6 5 5 6 6 7 7 7 7 7 7 7 7 7 7 6 6 6 6 6 6 7 6 6 7 7 7 7 7 8 8 8 8 8 8 8 8 8 8 8 8 8 9 9 9 9 6 5 5 6 5 5
11 11 11 10 10 9 10 9 9 8 8 7 7 7 7 7 7 7 7 7 6 6 6 6 6 6 6 5 5 5 6 6 6 7 7 7 6 6 7 9 9 8 8 8 8 8 8 8 8 8 8 8 8 9 9 9 10 7 5 6 5 7 7
12 11 11 11 10 10 10 10 10 9 8 7 7 8 7 8 8 8 7 7 7 6 6 6 6 6 6 5 4 5 6 7 7 7 7 6 6 7 7 8 7 8 7 7 6 8 7 7 8 9 9 8 8 9 9 10 11 10 4 5 6 6 7
13 11 11 11 11 10 9 9 9 8 7 7 7 7 8 8 7 7 7 7 7 6 6 6 5 5 6 6 6 6 6 7 7 6 6 7 8 7 8 9 9 8 8 8 7 9 7 8 9 10 9 8 8 8 9 9 11 10 9 6 5 7 7
13 12 12 11 11 10 10 10 9 8 8 9 9 8 9 7 7 7 6 7 6 6 6 6 5 5 6 6 6 5 6 6 7 7 6 8 8 7 7 9 9 9 8 8 8 9 10 8 9 11 9 9 9 9 9 10 10 10 11 7 7 6 7
12 13 13 12 12 12 12 12 11 11 10 9 10 9 9 9 9 8 7 6 6 6 6 6 5 5 6 6 6 5 4 4 4 5 6 6 6 6 8 8 9 9 6 7 11 9 7 8 7 6 10 9 8 9 9 9 10 11 11 9 9 8 7
14 14 14 13 14 13 12 11 10 10 10 9 10 9 9 9 8 8 8 7 7 7 6 6 6 5 6 5 5 6 5 5 4 3 4 6 7 6 6 8 8 8 8 10 9 8 9 8 9 9 8 6 7 9 9 7 11 10 10 10 9 8 6
15 15 15 13 14 14 13 11 10 10 10 10 9 9 8 8 8 8 7 8 8 7 6 6 6 6 4 3 4 2 2 2 2 3 3 4 5 6 7 7 8 9 9 9 9 7 9 10 11 10 9 8 7 9 8 6 6 11 12 12 10 9 8
16 17 16 14 14 13 12 11 11 10 10 10 9 8 8 8 7 8 8 8 7 7 7 6 6 6 6 5 4 3 2 2 3 3 4 4 5 5 6 8 8 9 9 9 9 10 9 10 9 8 10 10 8 6 6 8 8 9 9 12 11 10 10
14 15 15 13 12 12 12 11 11 11 10 11 10 9 9 9 8 8 8 7 7 7 7 6 6 6 6 6 5 4 3 3 3 3 4 5 5 6 6 7 8 8 8 9 10 10 10 11 9 11 10 10 9 10 6 7 8 10 10 10 11 11 10
14 14 13 12 12 12 12 12 11 11 10 11 10 11 10 10 8 8 7 7 7 6 6 6 7 7 7 6 4 4 4 3 3 4 4 5 6 6 7 7 8 8 8 8 8 9 9 8 8 10 9 8 10 8 10 9 8 10 8 9 11 10 10
13 14 13 12 13 13 13 12 11 10 10 10 9 10 10 10 9 9 8 8 7 7 7 7 7 7 7 5 4 4 3 4 4 5 5 6 6 7 7 7 7 7 8 9 9 8 8 7 7 7 7 8 8 9 9 8 8 10 9 9 10 10 9
13 14 14 14 14 13 13 12 10 10 10 10 9 9 10 10 10 9 9 9 8 7 7 6 6 4 1 3 5 4 4 4 5 5 5 6 7 7 8 8 8 11 10 9 9 10 12 11 10 10 11 9 10 10 10 9 9 9 10 10 11 10 10
12 14 13 12 13 14 14 12 12 12 10 10 10 10 10 10 10 9 9 9 9 7 7 6 11 10 7 2 4 4 4 5 5 5 6 6 7 7 7 9 10 12 11 11 12 15 15 15 15 14 13 13 10 10 11 12 11 10 9 10 11 10 10
12 13 13 13 14 14 13 12 12 11 8 6 6 9 10 11 11 10 8 9 9 8 8 10 13 11 10 9 6 5 5 5 5 6 6 6 6 6 7 8 9 9 9 10 10 9 13 16 16 15 15 13 12 13 13 12 12 11 11 11 12 11 11
13 13 13 14 13 13 14 14 13 13 13 12 10 11 11 11 11 10 9 9 9 9 7 12 13 13 12 11 10 7 6 6 6 6 6 6 7 7 7 7 8 8 8 11 10 10 10 9 14 17 15 16 15 15 16 17 16 14 12 13 12 13 12
13 13 13 13 13 14 15 14 13 13 12 13 12 11 11 10 9 10 10 10 9 8 8 12 14 14 12 12 10 8 7 7 7 7 8 7 7 7 7 8 8 8 9 10 9 9 9 9 9 7 9 9 10 13 17 19 18 19 17 14 14 15 14
12 12 12 13 13 14 14 14 14 12 12 11 11 11 12 11 8 10 10 9 9 8 6 14 14 14 13 11 11 8 7 8 8 8 8 8 8 8 8 8 8 9 9 9 9 5 7 9 8 8 10 10 10 11 10 10 12 11 11 12 15 16 16
12 12 12 12 13 13 13 14 14 12 12 10 11 10 11 9 11 13 11 10 9 10 6 14 14 14 13 12 10 7 8 9 9 9 9 9 9 8 8 8 8 9 10 10 8 4 3 7 9 10 11 11 11 11 11 11 11 12 11 11 12 14 14
12 12 12 13 13 13 13 14 13 12 12 12 10 12 11 10 11 10 10 10 10 10 7 11 14 13 13 12 9 8 8 8 9 10 10 11 11 11 10 10 10 8 9 10 2 6 5 3 8 11 11 11 11 11 11 10 12 15 17 17 17 17 17
12 12 12 13 13 12 12 11 12 12 12 11 12 11 11 10 6 7 10 13 12 9 8 11 15 14 13 14 12 9 8 8 9 11 11 11 10 11 12 9 9 10 10 9 12 8 6 2 8 11 11 12 12 12 11 10 9 9 15 18 18 19 19
11 12 12 13 12 12 12 12 11 11 11 11 11 10 10 10 11 9 8 10 11 12 9 10 14 15 14 15 11 8 8 9 11 11 10 10 11 11 11 9 12 11 10 10 4 3 3 3 8 11 11 11 12 13 11 11 11 11 10 10 10 12 14
11 11 12 11 11 11 10 10 11 11 10 10 10 11 10 9 10 10 8 10 9 10 10 7 11 15 15 15 15 9 8 9 11 11 10 10 11 11 11 10 8 17 15 13 12 11 8 3 6 11 9 10 11 13 10 8 8 9 10 10 12 12 12
11 11 10 10 10 10 9 10 11 11 11 10 10 10 10 11 9 10 11 11 12 10 8 8 11 15 15 15 15 12 9 9 10 10 10 10 10 10 10 10 10 9 15 12 8 7 6 7 8 9 9 10 10 8 9 9 12 12 12 11 11 11 12
10 9 9 9 10 10 9 10 10 12 11 11 12 12 12 12 12 11 8 12 10 9 8 9 9 13 15 14 14 15 9 10 9 9 10 10 10 10 10 9 10 4 8 7 6 6 7 8 8 7 9 14 14 12 10 11 11 10 10 10 9 9 9
9 8 9 10 10 10 9 10 10 11 11 11 11 11 11 11 11 11 10 11 8 8 8 8 9 10 14 14 15 15 16 12 6 8 9 10 10 10 10 10 6 10 5 3 3 5 7 8 7 9 13 14 11 9 7 8 9 9 9 10 10 9 9
10 9 10 10 10 10 10 10 10 9 10 10 10 11 10 11 11 11 12 10 9 8 8 7 10 10 11 15 14 15 16 16 13 9 9 10 11 10 11 10 2 5 4 6 7 8 8 7 7 9 8 9 9 8 7 8 8 8 9 9 9 9 9
Wind_Direction
201 191 187 189 189 187 189 187 190 192 202 207 205 216 211 208 212 211 211 216 218 212 213 217 223 221 235 221 220 235 231 241 233 246 254 253 254 257 216 259 244 259 270 273 266 289 301 301 274 2 313 240 236 258 273 294 285 286 234 237 248 235 228
193 194 193 198 191 190 195 188 203 202 204 211 212 209 214 215 205 208 209 207 206 210 211 218 216 219 228 235 217 226 237 234 240 247 255 257 255 255 238 234 245 251 243 232 257 257 275 279 277 234 221 165 247 226 254 275 282 262 250 245 256 274 260
193 195 199 191 195 192 196 195 200 206 204 203 212 215 215 213 211 209 209 211 209 215 224 238 241 226 225 233 231 233 227 239 234 233 239 254 255 262 258 267 258 248 254 254 239 250 246 253 273 285 289 285 275 227 229 260 268 272 256 230 230 244 254
191 191 190 190 190 192 202 199 199 201 202 206 203 209 212 216 209 211 214 211 214 217 222 230 234 236 224 219 225 225 230 235 240 232 234 242 250 248 246 244 248 249 257 257 253 243 249 257 259 263 269 261 270 282 262 244 267 276 268 263 251 237 243
206 201 198 196 194 199 202 206 200 197 195 198 202 203 205 212 210 209 213 217 214 212 216 222 235 235 215 267 243 244 251 241 237 237 236 231 231 240 239 244 247 252 253 254 260 261 256 256 261 272 274 279 269 266 282 246 264 290 288 264 256 234 226
211 208 202 201 196 198 200 204 200 200 197 202 203 210 206 205 207 210 208 211 210 213 220 218 214 226 200 193 214 217 231 238 230 229 232 234 231 234 238 239 249 250 249 253 259 261 258 263 265 271 265 264 271 271 262 258 244 226 248 252 251 185 280
202 203 204 203 197 199 197 200 200 203 199 204 201 210 202 201 208 214 214 216 217 211 207 210 214 211 217 221 217 225 233 234 240 233 236 240 238 238 246 250 246 245 253 258 254 248 249 250 251 253 264 262 263 265 265 261 285 268 233 241 244 237 242
197 198 201 203 199 198 197 200 203 205 211 205 210 204 207 210 215 219 221 223 220 215 210 204 198 200 198 207 213 222 223 225 232 235 241 239 238 234 235 241 247 247 248 247 245 248 249 246 251 255 258 263 251 249 256 248 235 242 262 268 290 272 238
199 197 196 198 199 200 196 202 203 210 213 213 208 205 201 211 213 218 218 224 225 225 222 222 219 215 199 198 205 206 217 213 223 230 237 238 240 240 237 235 240 243 239 237 239 245 250 251 246 247 248 252 265 269 261 252 247 254 243 245 242 272 340
199 199 197 192 195 193 193 198 202 204 208 209 205 206 210 210 215 215 219 220 222 219 218 219 224 224 215 210 210 205 215 213 216 226 235 241 241 240 241 238 237 239 240 239 238 239 244 246 247 249 245 247 253 262 260 264 249 244 236 223 241 177 231
199 199 198 193 190 190 193 196 199 199 200 203 207 202 208 209 212 214 223 224 223 225 227 227 231 232 229 230 230 230 226 220 217 216 227 237 243 242 242 238 234 239 238 240 243 237 236 240 243 246 248 246 243 248 255 264 270 258 255 217 237 235 184
201 200 197 195 192 194 195 195 195 196 195 199 205 202 205 205 205 205 213 219 221 226 229 229 228 231 232 230 223 235 234 236 237 230 225 230 235 238 245 245 238 239 240 240 240 244 238 240 245 242 245 251 247 246 255 259 265 256 250 243 239 247 247
200 200 197 196 196 197 196 196 193 193 195 199 204 207 208 208 206 205 205 207 209 216 219 223 224 230 228 225 215 227 232 238 243 242 234 229 236 245 250 254 259 249 243 246 249 257 246 248 249 249 245 240 244 246 249 254 255 261 221 240 253 258 243
203 203 199 199 199 200 196 197 197 197 196 204 204 207 213 213 213 213 209 208 208 201 211 216 219 228 228 227 222 222 226 234 239 242 242 236 235 227 234 239 240 245 250 248 235 239 244 247 245 246 247 246 246 244 244 248 256 261 256 234 245 255 266
203 203 201 199 201 201 197 195 195 197 201 203 206 205 208 202 207 208 210 210 208 207 209 212 216 224 232 231 227 226 235 238 246 249 245 251 246 246 248 250 248 246 236 252 266 262 237 227 239 246 240 239 242 244 241 251 252 259 262 252 247 240 243
202 204 203 201 200 199 197 195 193 196 197 197 199 200 197 190 190 195 197 202 204 205 208 211 208 221 230 236 233 222 231 241 258 260 260 259 260 263 261 255 250 250 239 233 241 248 273 266 265 266 253 245 242 245 249 246 256 261 261 259 253 251 249
203 203 204 203 202 199 197 197 193 195 198 197 196 197 193 191 188 192 193 194 195 194 203 203 208 222 225 232 236 236 237 247 260 281 293 282 284 277 264 261 258 250 242 246 249 248 239 246 240 236 251 261 259 255 255 248 248 256 267 269 259 259 248
202 202 201 201 201 199 198 196 193 197 198 201 197 191 191 191 187 191 185 192 186 186 191 192 195 198 199 223 231 211 224 242 264 277 286 288 288 285 288 283 278 268 265 264 257 249 252 237 247 245 231 247 253 253 244 238 259 254 255 260 266 265 260
199 199 201 202 198 199 198 196 192 196 197 197 191 190 190 188 193 188 185 187 183 178 185 189 204 207 201 201 195 195 227 250 271 284 283 282 281 283 281 282 281 285 276 263 261 261 258 258 256 258 253 245 245 247 251 253 250 257 258 261 259 264 260
200 202 203 205 201 199 199 197 197 198 196 194 187 190 193 191 194 197 186 181 183 182 181 182 199 203 203 203 199 199 204 231 251 269 280 279 280 278 277 276 278 277 277 276 271 266 263 260 253 253 253 254 243 246 253 253 249 245 244 255 260 260 260
206 205 205 206 202 198 194 195 199 199 196 196 190 194 193 193 188 199 187 188 187 183 175 185 192 200 205 198 202 200 206 226 242 251 261 269 273 275 274 274 271 270 269 265 264 275 280 283 296 276 264 256 252 245 248 245 249 250 245 252 254 253 252
214 210 206 207 202 197 198 195 195 195 193 197 197 200 195 195 190 195 191 193 190 181 191 190 193 200 197 195 205 207 229 248 268 274 275 277 278 276 274 272 271 270 273 284 327 321 304 308 295 285 282 280 276 270 261 259 252 252 256 255 252 250 254
214 211 209 213 205 200 197 193 188 207 198 198 197 203 201 200 195 197 197 191 193 188 194 196 151 140 320 231 202 219 230 241 251 266 276 282 281 279 279 276 270 266 257 261 272 279 281 279 269 265 266 277 276 268 265 269 267 262 256 257 256 250 242
212 213 209 215 211 205 200 190 181 187 191 201 198 202 204 201 201 202 202 197 190 196 195 183 143 167 171 232 250 240 247 253 253 263 270 277 282 284 280 277 277 274 260 225 223 227 239 233 232 238 244 255 271 273 266 262 260 260 267 255 254 254 252
211 211 208 212 213 204 193 182 178 183 181 167 209 216 208 209 204 202 206 203 198 199 204 146 160 169 183 190 223 246 243 250 254 258 267 272 279 285 284 280 278 277 274 275 286 246 221 223 229 227 234 242 239 243 247 256 258 258 256 260 257 254 255
213 213 214 214 212 203 193 189 188 187 190 195 193 214 213 211 210 205 200 208 208 203 214 149 169 175 183 191 202 233 245 252 256 260 264 266 274 279 283 282 278 269 270 261 255 250 262 242 209 219 225 228 235 233 234 235 244 250 259 262 266 263 254
214 213 213 212 208 204 199 195 194 194 194 189 195 201 212 214 220 213 207 210 211 207 217 157 173 178 183 190 195 212 247 254 257 261 262 263 263 269 272 275 274 270 263 258 256 260 259 259 270 242 232 232 245 229 220 229 231 233 238 250 255 256 260
211 211 206 205 202 201 201 200 197 197 193 191 194 198 205 202 209 231 211 210 211 207 202 155 175 179 184 188 190 205 239 247 252 254 255 256 256 260 269 266 267 268 268 267 263 301 290 282 285 278 273 274 270 272 270 245 223 219 223 228 241 250 256
201 202 201 199 200 201 201 203 200 203 199 195 200 206 205 194 198 221 216 208 214 217 169 164 172 180 180 188 177 204 232 243 249 255 258 257 258 261 263 262 262 264 264 263 265 124 268 281 275 279 281 277 275 272 267 261 262 275 269 255 239 245 250
198 199 197 200 201 201 201 202 203 199 202 199 193 206 203 193 206 216 223 219 216 222 205 171 171 176 179 174 177 217 230 242 250 259 269 273 274 273 272 270 268 271 271 265 288 122 113 192 265 273 275 276 277 276 270 270 239 230 241 254 261 262 263
196 196 196 200 201 202 202 202 203 201 207 202 203 201 205 193 192 215 218 226 220 219 224 164 170 170 172 174 191 212 232 241 257 268 271 271 274 276 277 256 254 270 275 268 94 91 91 257 271 273 273 277 279 275 273 270 272 251 218 226 240 249 253
200 197 200 202 202 201 201 201 198 199 204 208 206 194 182 189 199 216 221 235 230 222 226 159 166 165 173 179 192 221 234 250 264 272 268 266 268 274 270 250 209 234 257 278 285 283 167 265 279 274 275 279 277 275 274 280 277 278 279 271 245 237 244
203 201 203 201 200 202 198 195 196 196 199 205 197 193 189 187 205 213 204 224 223 217 225 177 163 169 175 182 194 215 234 247 263 268 273 269 273 277 271 271 226 198 226 237 256 279 293 271 273 272 273 266 269 272 289 303 313 315 296 284 283 280 277
205 204 205 202 199 199 194 193 190 191 192 197 195 187 184 201 207 218 215 219 219 212 211 200 161 173 178 184 193 210 233 247 256 262 267 274 266 267 267 261 276 194 198 216 234 238 248 248 244 258 256 256 262 316 340 287 279 269 270 270 270 268 265
203 203 203 200 196 195 192 184 181 188 191 193 191 196 193 201 209 210 209 219 213 208 185 192 165 176 178 184 191 202 228 241 256 263 269 270 268 268 267 272 276 116 132 147 191 223 246 250 244 247 250 259 292 314 296 284 280 272 265 264 264 262 261
197 197 194 193 189 189 185 183 180 183 188 190 197 202 204 205 207 212 215 217 207 204 193 182 190 172 178 182 192 200 220 241 263 260 261 263 268 268 268 273 288 89 96 100 264 275 270 261 245 248 252 270 278 285 282 267 267 272 273 270 268 262 259
200 196 187 185 188 190 186 184 184 187 188 192 198 206 211 211 215 217 215 221 218 210 200 198 180 179 169 188 193 202 211 226 242 244 252 256 261 263 262 267 44 57 13 322 303 289 281 260 267 296 295 272 272 267 262 264 265 270 270 268 264 264 263